Hourly Weather Nizhneangarsk

Today, 8 July, Wednesday

Time Temperature Precipitation Wind Pressure Humidity
00:00 +19°C° 0 mm 1 mps 709 mmHg 74%
01:00 +18°C° 0 mm 2 mps 709 mmHg 72%
02:00 +18°C° 0 mm 2 mps 709 mmHg 71%
03:00 +19°C° 0 mm 2 mps 708 mmHg 70%
04:00 +20°C° 0 mm 1 mps 708 mmHg 69%
05:00 +22°C° 0 mm 1 mps 708 mmHg 63%
06:00 +24°C° 0 mm 1 mps 708 mmHg 57%
07:00 +26°C° 0 mm 1 mps 708 mmHg 51%
08:00 +26°C° 0 mm 2 mps 708 mmHg 51%
09:00 +26°C° 0 mm 3 mps 708 mmHg 51%
10:00 +26°C° 0 mm 4 mps 709 mmHg 50%
11:00 +25°C° 0.1 mm 4 mps 708 mmHg 58%
12:00 +23°C° 0.1 mm 4 mps 708 mmHg 66%
13:00 +21°C° 0.1 mm 4 mps 708 mmHg 74%
14:00 +21°C° 0 mm 4 mps 708 mmHg 74%
15:00 +21°C° 0 mm 3 mps 708 mmHg 75%
16:00 +20°C° 0 mm 3 mps 708 mmHg 75%
17:00 +20°C° 0.2 mm 2 mps 708 mmHg 80%
18:00 +20°C° 0.2 mm 1 mps 709 mmHg 84%
19:00 +19°C° 0.2 mm 1 mps 709 mmHg 88%
20:00 +19°C° 0.4 mm 1 mps 709 mmHg 90%
21:00 +18°C° 0.4 mm 1 mps 709 mmHg 92%
22:00 +18°C° 0.4 mm 1 mps 709 mmHg 94%
23:00 +16°C° 0.3 mm 0 mps 709 mmHg 94%

Tomorrow, 9 July, Thursday

Time Temperature Precipitation Wind Pressure Humidity
00:00 +16°C° 0.3 mm 0 mps 709 mmHg 94%
01:00 +16°C° 0.3 mm 0 mps 709 mmHg 93%
02:00 +18°C° 0 mm 1 mps 708 mmHg 93%
03:00 +16°C° 0 mm 1 mps 708 mmHg 92%
04:00 +16°C° 0 mm 1 mps 708 mmHg 92%
05:00 +18°C° 0 mm 1 mps 709 mmHg 86%
06:00 +20°C° 0 mm 1 mps 709 mmHg 79%
07:00 +21°C° 0 mm 1 mps 709 mmHg 73%
08:00 +22°C° 0 mm 1 mps 709 mmHg 69%
09:00 +23°C° 0 mm 1 mps 709 mmHg 64%
10:00 +24°C° 0 mm 2 mps 709 mmHg 59%
11:00 +25°C° 0 mm 2 mps 709 mmHg 57%
12:00 +25°C° 0 mm 2 mps 708 mmHg 55%
13:00 +26°C° 0 mm 2 mps 708 mmHg 53%
14:00 +26°C° 0 mm 2 mps 708 mmHg 54%
15:00 +25°C° 0 mm 2 mps 708 mmHg 54%
16:00 +25°C° 0 mm 2 mps 708 mmHg 55%
17:00 +24°C° 0 mm 1 mps 708 mmHg 59%
18:00 +23°C° 0 mm 1 mps 708 mmHg 62%
19:00 +23°C° 0 mm 1 mps 708 mmHg 66%
20:00 +22°C° 0 mm 1 mps 708 mmHg 67%
21:00 +21°C° 0 mm 1 mps 708 mmHg 69%
22:00 +20°C° 0 mm 1 mps 708 mmHg 70%
23:00 +20°C° 0.1 mm 1 mps 708 mmHg 72%

Day after tomorrow, 10 July, Friday

Time Temperature Precipitation Wind Pressure Humidity
00:00 +20°C° 0.1 mm 1 mps 708 mmHg 73%
01:00 +19°C° 0.1 mm 1 mps 708 mmHg 75%
02:00 +19°C° 1.1 mm 1 mps 708 mmHg 81%
03:00 +18°C° 1.1 mm 1 mps 708 mmHg 86%
04:00 +18°C° 1.1 mm 1 mps 708 mmHg 92%
05:00 +18°C° 0.3 mm 1 mps 708 mmHg 91%
06:00 +19°C° 0.3 mm 1 mps 708 mmHg 89%
07:00 +19°C° 0.3 mm 1 mps 708 mmHg 87%
08:00 +20°C° 0 mm 1 mps 708 mmHg 83%
09:00 +21°C° 0 mm 1 mps 709 mmHg 79%
10:00 +22°C° 0 mm 1 mps 709 mmHg 75%
11:00 +23°C° 0 mm 1 mps 708 mmHg 70%
12:00 +24°C° 0 mm 1 mps 708 mmHg 66%
13:00 +25°C° 0 mm 1 mps 708 mmHg 61%
14:00 +25°C° 0 mm 1 mps 708 mmHg 61%
15:00 +25°C° 0 mm 1 mps 708 mmHg 60%
16:00 +25°C° 0 mm 1 mps 708 mmHg 59%
17:00 +24°C° 0 mm 1 mps 708 mmHg 64%
18:00 +23°C° 0 mm 1 mps 708 mmHg 70%
19:00 +22°C° 0 mm 1 mps 709 mmHg 75%
20:00 +21°C° 0.5 mm 2 mps 709 mmHg 80%
21:00 +20°C° 0.5 mm 2 mps 709 mmHg 85%
22:00 +19°C° 0.5 mm 3 mps 709 mmHg 91%
23:00 +19°C° 0.2 mm 3 mps 709 mmHg 91%

11 July, Saturday

Time Temperature Precipitation Wind Pressure Humidity
00:00 +19°C° 0.2 mm 3 mps 709 mmHg 91%
01:00 +19°C° 0.2 mm 2 mps 708 mmHg 91%
02:00 +19°C° 0 mm 3 mps 708 mmHg 90%
03:00 +19°C° 0 mm 3 mps 708 mmHg 89%
04:00 +19°C° 0 mm 3 mps 708 mmHg 88%
05:00 +20°C° 0 mm 3 mps 708 mmHg 81%
06:00 +22°C° 0 mm 3 mps 708 mmHg 74%
07:00 +25°C° 0 mm 3 mps 708 mmHg 67%
08:00 +25°C° 0.2 mm 3 mps 708 mmHg 66%
09:00 +25°C° 0.2 mm 2 mps 708 mmHg 66%
10:00 +26°C° 0.2 mm 2 mps 708 mmHg 65%
11:00 +26°C° 0.2 mm 2 mps 708 mmHg 62%
12:00 +27°C° 0.2 mm 3 mps 709 mmHg 58%
13:00 +28°C° 0.2 mm 3 mps 709 mmHg 54%
14:00 +27°C° 0.5 mm 3 mps 709 mmHg 55%
15:00 +27°C° 0.5 mm 2 mps 709 mmHg 57%
16:00 +27°C° 0.5 mm 2 mps 709 mmHg 58%
17:00 +25°C° 1 mm 1 mps 709 mmHg 66%
18:00 +24°C° 1 mm 1 mps 709 mmHg 75%
19:00 +22°C° 1 mm 1 mps 709 mmHg 84%
20:00 +22°C° 0.5 mm 1 mps 710 mmHg 86%
21:00 +21°C° 0.5 mm 1 mps 710 mmHg 87%
22:00 +20°C° 0.5 mm 1 mps 710 mmHg 89%
23:00 +20°C° 0.4 mm 1 mps 710 mmHg 89%

12 July, Sunday

Time Temperature Precipitation Wind Pressure Humidity
00:00 +20°C° 0.3 mm 1 mps 710 mmHg 90%
01:00 +17°C° 0.4 mm 0 mps 710 mmHg 90%
02:00 +19°C° 0.1 mm 1 mps 710 mmHg 89%
03:00 +20°C° 0.1 mm 1 mps 710 mmHg 88%
04:00 +20°C° 0.1 mm 1 mps 710 mmHg 87%
05:00 +21°C° 0 mm 1 mps 710 mmHg 83%
06:00 +21°C° 0 mm 2 mps 710 mmHg 78%
07:00 +24°C° 0 mm 2 mps 710 mmHg 74%
08:00 +25°C° 0.1 mm 1 mps 710 mmHg 69%
09:00 +25°C° 0.1 mm 1 mps 710 mmHg 64%
10:00 +26°C° 0.1 mm 1 mps 710 mmHg 59%
11:00 +27°C° 0.2 mm 2 mps 710 mmHg 58%
12:00 +27°C° 0.2 mm 3 mps 710 mmHg 57%
13:00 +27°C° 0.2 mm 4 mps 711 mmHg 56%
14:00 +27°C° 0.2 mm 3 mps 711 mmHg 58%
15:00 +27°C° 0.2 mm 3 mps 711 mmHg 59%
16:00 +26°C° 0.2 mm 2 mps 711 mmHg 61%
17:00 +25°C° 0.2 mm 1 mps 711 mmHg 67%
18:00 +24°C° 0.2 mm 1 mps 711 mmHg 72%
19:00 +21°C° 0.2 mm 0 mps 711 mmHg 78%
20:00 +20°C° 0.2 mm 0 mps 711 mmHg 81%
21:00 +19°C° 0.2 mm 0 mps 712 mmHg 84%
22:00 +18°C° 0.2 mm 0 mps 712 mmHg 88%
23:00 +17°C° 0.3 mm 0 mps 712 mmHg 88%

13 July, Monday

Time Temperature Precipitation Wind Pressure Humidity
00:00 +17°C° 0.3 mm 0 mps 712 mmHg 88%
01:00 +19°C° 0.3 mm 1 mps 712 mmHg 89%
02:00 +19°C° 0.2 mm 1 mps 712 mmHg 88%
03:00 +20°C° 0.2 mm 1 mps 713 mmHg 88%
04:00 +20°C° 0.2 mm 1 mps 713 mmHg 87%
05:00 +21°C° 0 mm 1 mps 713 mmHg 84%
06:00 +22°C° 0 mm 1 mps 713 mmHg 80%
07:00 +23°C° 0 mm 1 mps 714 mmHg 76%
08:00 +24°C° 0.1 mm 1 mps 714 mmHg 73%
09:00 +25°C° 0.1 mm 1 mps 714 mmHg 70%
10:00 +26°C° 0.1 mm 1 mps 714 mmHg 67%
11:00 +26°C° 0.3 mm 2 mps 713 mmHg 66%
12:00 +26°C° 0.3 mm 2 mps 713 mmHg 64%
13:00 +27°C° 0.3 mm 3 mps 713 mmHg 63%
14:00 +27°C° 0.2 mm 3 mps 713 mmHg 63%
15:00 +26°C° 0.2 mm 2 mps 713 mmHg 63%
16:00 +26°C° 0.2 mm 2 mps 713 mmHg 63%
17:00 +25°C° 0 mm 1 mps 713 mmHg 68%
18:00 +24°C° 0 mm 1 mps 713 mmHg 73%
19:00 +21°C° 0 mm 0 mps 713 mmHg 78%
20:00 +20°C° 0 mm 0 mps 713 mmHg 81%
21:00 +19°C° 0 mm 0 mps 713 mmHg 83%
22:00 +20°C° 0 mm 1 mps 713 mmHg 85%
23:00 +20°C° 0.1 mm 1 mps 713 mmHg 83%
Show more